When you browse on this site, cookies collect data to enhance your experience and personalize the content and advertising you see.
Visit our Privacy Policy to learn more. By continuing to use the site, you agree to this use of cookies and data.
  • In Slovakia
  • List of Countries
  • For 7 days
  • Water Temperature
  • Weather Map
  • Weather Widgets
  • user-avatar
    Login

    Hourly Weather Salta

    Today, 15 October, Tuesday

    Time Temperature Precipitation Wind Pressure Humidity
    00:00 +11°C° 0 mm 1 mps 652 mmHg 90%
    01:00 +11°C° 0 mm 1 mps 652 mmHg 90%
    02:00 +11°C° 0 mm 1 mps 652 mmHg 90%
    03:00 +11°C° 0 mm 1 mps 652 mmHg 89%
    04:00 +11°C° 0 mm 1 mps 652 mmHg 89%
    05:00 +10°C° 0 mm 1 mps 652 mmHg 88%
    06:00 +11°C° 0 mm 1 mps 652 mmHg 84%
    07:00 +12°C° 0 mm 1 mps 653 mmHg 79%
    08:00 +13°C° 0 mm 1 mps 654 mmHg 75%
    09:00 +14°C° 0 mm 1 mps 654 mmHg 70%
    10:00 +16°C° 0 mm 2 mps 653 mmHg 66%
    11:00 +17°C° 0 mm 2 mps 653 mmHg 61%
    12:00 +17°C° 0 mm 2 mps 653 mmHg 61%
    13:00 +18°C° 0 mm 2 mps 652 mmHg 61%
    14:00 +18°C° 0 mm 2 mps 651 mmHg 61%
    15:00 +17°C° 0 mm 2 mps 651 mmHg 65%
    16:00 +16°C° 0 mm 2 mps 650 mmHg 68%
    17:00 +15°C° 0 mm 2 mps 650 mmHg 72%
    18:00 +15°C° 0 mm 2 mps 650 mmHg 74%
    19:00 +14°C° 0 mm 2 mps 651 mmHg 76%
    20:00 +13°C° 0 mm 1 mps 652 mmHg 79%
    21:00 +13°C° 0 mm 1 mps 652 mmHg 79%
    22:00 +12°C° 0 mm 1 mps 652 mmHg 80%
    23:00 +12°C° 0 mm 1 mps 652 mmHg 81%

    Tomorrow, 16 October, Wednesday

    Time Temperature Precipitation Wind Pressure Humidity
    00:00 +11°C° 0 mm 1 mps 652 mmHg 82%
    01:00 +11°C° 0 mm 1 mps 651 mmHg 83%
    02:00 +10°C° 0 mm 1 mps 651 mmHg 84%
    03:00 +10°C° 0 mm 1 mps 651 mmHg 83%
    04:00 +10°C° 0 mm 1 mps 651 mmHg 83%
    05:00 +10°C° 0 mm 1 mps 651 mmHg 82%
    06:00 +11°C° 0 mm 1 mps 652 mmHg 78%
    07:00 +12°C° 0 mm 1 mps 652 mmHg 74%
    08:00 +14°C° 0 mm 1 mps 653 mmHg 69%
    09:00 +15°C° 0 mm 1 mps 653 mmHg 64%
    10:00 +17°C° 0 mm 2 mps 652 mmHg 59%
    11:00 +19°C° 0 mm 2 mps 652 mmHg 54%
    12:00 +19°C° 0 mm 2 mps 651 mmHg 53%
    13:00 +20°C° 0 mm 3 mps 651 mmHg 52%
    14:00 +21°C° 0 mm 3 mps 650 mmHg 51%
    15:00 +20°C° 0 mm 3 mps 649 mmHg 53%
    16:00 +20°C° 0 mm 3 mps 649 mmHg 55%
    17:00 +19°C° 0 mm 3 mps 648 mmHg 56%
    18:00 +18°C° 0 mm 2 mps 649 mmHg 62%
    19:00 +16°C° 0 mm 2 mps 649 mmHg 69%
    20:00 +15°C° 0 mm 1 mps 649 mmHg 75%
    21:00 +14°C° 0 mm 1 mps 650 mmHg 76%
    22:00 +14°C° 0 mm 1 mps 650 mmHg 78%
    23:00 +13°C° 0 mm 1 mps 650 mmHg 80%

    Day after tomorrow, 17 October, Thursday

    Time Temperature Precipitation Wind Pressure Humidity
    00:00 +12°C° 0 mm 1 mps 649 mmHg 82%
    01:00 +11°C° 0 mm 0 mps 649 mmHg 83%
    02:00 +10°C° 0 mm 0 mps 649 mmHg 85%
    03:00 +10°C° 0 mm 0 mps 649 mmHg 84%
    04:00 +10°C° 0 mm 0 mps 649 mmHg 84%
    05:00 +10°C° 0 mm 0 mps 649 mmHg 84%
    06:00 +12°C° 0 mm 0 mps 650 mmHg 77%
    07:00 +14°C° 0 mm 0 mps 651 mmHg 70%
    08:00 +18°C° 0 mm 1 mps 652 mmHg 63%
    09:00 +19°C° 0 mm 1 mps 652 mmHg 58%
    10:00 +20°C° 0 mm 2 mps 652 mmHg 53%
    11:00 +23°C° 0 mm 2 mps 652 mmHg 48%
    12:00 +24°C° 0 mm 2 mps 651 mmHg 47%
    13:00 +24°C° 0 mm 3 mps 651 mmHg 46%
    14:00 +25°C° 0 mm 3 mps 650 mmHg 45%
    15:00 +24°C° 0 mm 3 mps 650 mmHg 49%
    16:00 +22°C° 0 mm 3 mps 649 mmHg 53%
    17:00 +21°C° 0 mm 4 mps 649 mmHg 57%
    18:00 +20°C° 0 mm 3 mps 649 mmHg 62%
    19:00 +19°C° 0 mm 2 mps 650 mmHg 67%
    20:00 +17°C° 0 mm 2 mps 650 mmHg 72%
    21:00 +18°C° 0 mm 1 mps 651 mmHg 74%
    22:00 +16°C° 0 mm 1 mps 651 mmHg 76%
    23:00 +16°C° 0 mm 1 mps 651 mmHg 78%

    18 October, Friday

    Time Temperature Precipitation Wind Pressure Humidity
    00:00 +15°C° 0 mm 1 mps 651 mmHg 80%
    01:00 +15°C° 0 mm 1 mps 651 mmHg 83%
    02:00 +13°C° 0 mm 0 mps 651 mmHg 85%
    03:00 +13°C° 0 mm 0 mps 651 mmHg 87%
    04:00 +12°C° 0 mm 0 mps 651 mmHg 88%
    05:00 +12°C° 0 mm 0 mps 651 mmHg 90%
    06:00 +14°C° 0 mm 1 mps 651 mmHg 86%
    07:00 +14°C° 0 mm 1 mps 652 mmHg 82%
    08:00 +15°C° 0 mm 1 mps 653 mmHg 78%
    09:00 +16°C° 0 mm 2 mps 652 mmHg 75%
    10:00 +17°C° 0 mm 2 mps 652 mmHg 72%
    11:00 +17°C° 0 mm 2 mps 652 mmHg 69%
    12:00 +18°C° 0 mm 2 mps 652 mmHg 66%
    13:00 +19°C° 0 mm 2 mps 651 mmHg 64%
    14:00 +19°C° 0 mm 2 mps 651 mmHg 62%
    15:00 +19°C° 0.1 mm 2 mps 651 mmHg 65%
    16:00 +18°C° 0.1 mm 2 mps 650 mmHg 68%
    17:00 +17°C° 0.1 mm 2 mps 650 mmHg 72%
    18:00 +17°C° 0 mm 2 mps 651 mmHg 75%
    19:00 +16°C° 0 mm 1 mps 651 mmHg 79%
    20:00 +15°C° 0 mm 1 mps 651 mmHg 82%
    21:00 +15°C° 0 mm 1 mps 652 mmHg 84%
    22:00 +15°C° 0 mm 1 mps 652 mmHg 86%
    23:00 +14°C° 0 mm 1 mps 652 mmHg 88%

    19 October, Saturday

    Time Temperature Precipitation Wind Pressure Humidity
    00:00 +14°C° 0 mm 1 mps 652 mmHg 88%
    01:00 +14°C° 0 mm 1 mps 652 mmHg 89%
    02:00 +14°C° 0 mm 1 mps 652 mmHg 90%
    03:00 +14°C° 0 mm 1 mps 652 mmHg 90%
    04:00 +13°C° 0 mm 0 mps 652 mmHg 90%
    05:00 +13°C° 0 mm 0 mps 652 mmHg 90%
    06:00 +14°C° 0 mm 1 mps 652 mmHg 86%
    07:00 +15°C° 0 mm 1 mps 653 mmHg 83%
    08:00 +16°C° 0 mm 1 mps 653 mmHg 79%
    09:00 +16°C° 0 mm 2 mps 653 mmHg 76%
    10:00 +17°C° 0 mm 2 mps 653 mmHg 73%
    11:00 +18°C° 0 mm 2 mps 652 mmHg 70%
    12:00 +18°C° 0.1 mm 2 mps 652 mmHg 69%
    13:00 +18°C° 0.1 mm 2 mps 651 mmHg 67%
    14:00 +19°C° 0.1 mm 2 mps 650 mmHg 66%
    15:00 +18°C° 0.1 mm 2 mps 650 mmHg 71%
    16:00 +17°C° 0.1 mm 2 mps 649 mmHg 76%
    17:00 +16°C° 0.1 mm 2 mps 649 mmHg 81%
    18:00 +15°C° 0.3 mm 2 mps 649 mmHg 85%
    19:00 +15°C° 0.3 mm 2 mps 649 mmHg 88%
    20:00 +14°C° 0.3 mm 1 mps 650 mmHg 91%
    21:00 +14°C° 0.1 mm 1 mps 650 mmHg 92%
    22:00 +14°C° 0.1 mm 1 mps 650 mmHg 92%
    23:00 +14°C° 0.1 mm 1 mps 650 mmHg 92%

    20 October, Sunday

    Time Temperature Precipitation Wind Pressure Humidity
    00:00 +13°C° 0 mm 1 mps 649 mmHg 92%
    01:00 +13°C° 0 mm 1 mps 649 mmHg 92%
    02:00 +12°C° 0 mm 0 mps 649 mmHg 92%
    03:00 +12°C° 0.1 mm 0 mps 649 mmHg 92%
    04:00 +13°C° 0.1 mm 1 mps 649 mmHg 91%
    05:00 +13°C° 0.1 mm 1 mps 649 mmHg 91%
    06:00 +13°C° 0 mm 1 mps 649 mmHg 88%
    07:00 +14°C° 0 mm 1 mps 649 mmHg 85%
    08:00 +14°C° 0 mm 1 mps 649 mmHg 83%
    09:00 +15°C° 0 mm 1 mps 649 mmHg 79%
    10:00 +16°C° 0 mm 2 mps 649 mmHg 74%
    11:00 +17°C° 0 mm 2 mps 649 mmHg 70%
    12:00 +18°C° 0 mm 2 mps 648 mmHg 67%
    13:00 +19°C° 0 mm 2 mps 648 mmHg 64%
    14:00 +19°C° 0 mm 2 mps 648 mmHg 62%
    15:00 +18°C° 0 mm 2 mps 647 mmHg 65%
    16:00 +18°C° 0 mm 3 mps 647 mmHg 69%
    17:00 +17°C° 0 mm 3 mps 647 mmHg 72%
    18:00 +16°C° 0 mm 2 mps 648 mmHg 75%
    19:00 +15°C° 0 mm 2 mps 649 mmHg 77%
    20:00 +15°C° 0 mm 1 mps 649 mmHg 80%
    21:00 +14°C° 0 mm 1 mps 650 mmHg 81%
    22:00 +14°C° 0 mm 1 mps 650 mmHg 82%
    23:00 +14°C° 0 mm 1 mps 651 mmHg 83%
    Show more